EW1898 Weather Reports


time (UTC)temp
F
wind
direction
speed
knots
gust
knots
rain 1hr
in
rain 24hr
in
rain mn
in
humidity
%
barometer
mb
20260831174513 74 305 0.0 2.6 0.00 0.00 0.00 55 1019.1
20260831173012 74 300 0.0 3.5 0.00 0.00 0.00 53 1019.3
20260831171511 73 291 0.0 4.3 0.00 0.00 0.00 50 1019.5
20260831170010 73 289 0.0 4.3 0.00 0.00 0.00 47 1019.5
20260831164509 73 293 0.9 3.5 0.00 0.00 0.00 52 1019.7
20260831163013 73 299 0.0 5.2 0.00 0.00 0.00 53 1019.8
20260831161507 73 300 0.0 1.7 0.00 0.00 0.00 55 1020.0
20260831160006 73 284 0.0 1.7 0.00 0.00 0.00 56 1020.0
20260831154505 73 258 0.0 0.9 0.00 0.00 0.00 56 1020.1
20260831153005 72 303 0.0 1.7 0.00 0.00 0.00 56 1020.1
20260831151504 72 299 1.7 3.5 0.00 0.00 0.00 56 1020.3
20260831150008 73 252 0.0 1.7 0.00 0.00 0.00 55 1020.4
20260831144501 71 300 0.0 2.6 0.00 0.00 0.00 58 1020.5
20260831143004 71 290 0.9 2.6 0.00 0.00 0.00 57 1020.5
20260831141601 70 298 0.0 2.6 0.00 0.00 0.00 60 1020.6
20260831134601 71 303 0.0 1.7 0.00 0.00 0.00 59 1020.4
20260831133056 72 348 0.0 0.9 0.00 0.00 0.00 57 1020.3
20260831131607 70 287 0.0 1.7 0.00 0.00 0.00 61 1020.3
20260831130106 70 118 0.0 3.5 0.00 0.00 0.00 62 1020.3
20260831124558 69 265 0.0 0.9 0.00 0.00 0.00 67 1020.3
20260831123051 67 165 0.0 2.6 0.00 0.00 0.00 69 1020.3
20260831121551 65 156 0.0 0.9 0.00 0.00 0.00 78 1020.1
20260831120046 62 151 0.0 0.9 0.00 0.00 0.00 83 1020.0
20260831114543 61 137 0.0 0.0 0.00 0.00 0.00 84 1019.9
20260831113042 61 137 0.0 0.0 0.00 0.00 0.00 84 1019.8
20260831111540 60 136 0.0 0.0 0.00 0.00 0.00 85 1019.7
20260831110039 60 136 0.0 1.7 0.00 0.00 0.00 84 1019.6
20260831104538 59 267 0.0 0.9 0.00 0.00 0.00 86 1019.6
20260831103039 59 267 0.0 0.9 0.00 0.00 0.00 88 1019.4
20260831101535 59 288 0.0 0.0 0.00 0.00 0.00 89 1019.3
20260831100046 59 288 0.0 0.0 0.00 0.00 0.00 88 1019.3
20260831094530 60 288 0.0 0.0 0.00 0.00 0.00 87 1019.0
20260831093038 61 289 0.0 0.9 0.00 0.00 0.00 87 1018.8
20260831091522 62 288 0.0 0.9 0.00 0.00 0.00 85 1018.5
20260831090020 62 289 0.0 0.9 0.00 0.00 0.00 86 1018.3
20260831084519 61 288 0.0 0.0 0.00 0.00 0.00 89 1018.3
20260831083018 61 289 0.0 0.0 0.00 0.00 0.00 92 1018.2
20260831081515 62 288 0.0 0.0 0.00 0.00 0.00 92 1018.1
20260831080014 62 288 0.0 0.0 0.00 0.00 0.00 91 1018.1
20260831074510 63 288 0.0 0.0 0.00 0.00 0.00 90 1017.8
20260831073009 63 288 0.0 0.0 0.00 0.00 0.00 89 1017.8
20260831071505 64 288 0.0 0.0 0.00 0.00 0.00 88 1017.7
20260831070004 64 288 0.0 0.0 0.00 0.00 0.00 87 1017.7
20260831064503 64 288 0.0 0.0 0.00 0.00 0.00 88 1017.6
20260831063002 65 289 0.0 0.9 0.00 0.00 0.00 87 1017.6
20260831061559 65 288 0.0 0.9 0.00 0.00 0.00 86 1017.5
20260831060104 66 288 0.0 0.9 0.00 0.00 0.00 84 1017.5
20260831054551 67 288 0.0 0.0 0.00 0.00 0.00 83 1017.4
20260831053053 67 288 0.0 0.0 0.00 0.00 0.00 82 1017.3
20260831051548 68 288 0.0 0.9 0.00 0.00 0.00 81 1017.4
20260831050044 68 288 0.0 1.7 0.00 0.00 0.00 79 1017.2
20260831044547 69 287 0.0 2.6 0.00 0.00 0.00 78 1016.9
20260831043044 69 286 0.9 5.2 0.00 0.00 0.00 77 1016.7
20260831041541 70 285 0.9 4.3 0.00 0.00 0.00 77 1016.7
20260831040035 70 291 1.7 5.2 0.00 0.00 0.00 76 1016.6
20260831034533 71 290 0.9 4.3 0.00 0.00 0.00 77 1016.5
20260831033045 71 292 0.9 2.6 0.00 0.00 0.00 76 1016.6
20260831031535 71 292 0.9 2.6 0.00 0.00 0.00 76 1016.7
20260831030032 72 291 0.9 2.6 0.00 0.00 0.00 77 1016.8
20260831024532 72 290 0.9 3.5 0.00 0.00 0.00 79 1016.5
20260831023036 72 293 0.9 3.5 0.00 0.00 0.00 80 1016.7
20260831021537 72 292 0.9 3.5 0.00 0.00 0.00 81 1016.6
20260831020055 71 310 0.0 2.6 0.00 0.00 0.00 81 1016.6
20260831014529 72 306 0.0 0.9 0.00 0.00 0.00 80 1016.4
20260831013028 72 306 0.0 1.7 0.00 0.00 0.00 79 1016.4
20260831011529 72 304 0.0 1.7 0.00 0.00 0.00 79 1016.2
20260831010028 72 296 0.0 1.7 0.00 0.00 0.00 78 1015.9
20260831004527 72 309 0.0 1.7 0.00 0.00 0.00 77 1015.8
20260831003027 72 310 0.0 1.7 0.00 0.00 0.00 76 1015.7
20260831001529 72 311 0.0 1.7 0.00 0.00 0.00 75 1015.6
20260831000026 73 311 0.0 0.9 0.00 0.00 0.00 74 1015.5
20260830234538 73 312 0.0 0.9 0.00 0.00 0.00 73 1015.3
20260830233027 73 312 0.0 0.9 0.00 0.00 0.00 72 1015.1
20260830231527 73 312 0.0 0.9 0.00 0.00 0.00 70 1015.2
20260830230021 74 312 0.0 0.9 0.00 0.00 0.00 69 1015.3
20260830224519 74 312 0.0 0.0 0.00 0.00 0.00 69 1015.6
20260830223018 74 312 0.0 0.9 0.00 0.00 0.00 67 1015.6
20260830221517 75 312 0.0 1.7 0.00 0.00 0.00 67 1015.7
20260830220017 75 305 0.0 0.9 0.00 0.00 0.00 69 1015.7
20260830214516 75 305 0.0 0.9 0.00 0.00 0.00 71 1015.7
20260830213032 75 305 0.0 0.0 0.00 0.00 0.00 71 1015.7
20260830211514 75 305 0.0 0.0 0.00 0.00 0.00 69 1015.8
20260830210032 75 305 0.0 0.9 0.00 0.00 0.00 69 1016.1
20260830204510 76 305 0.0 0.9 0.00 0.00 0.00 67 1015.9
20260830203010 76 300 0.0 1.7 0.00 0.00 0.00 66 1016.1
20260830201509 76 312 0.9 1.7 0.00 0.00 0.00 65 1016.3
20260830200008 76 317 0.9 2.6 0.00 0.00 0.00 64 1016.3
20260830194506 76 343 0.0 3.5 0.00 0.00 0.00 64 1016.4
20260830193009 76 316 0.0 1.7 0.00 0.00 0.00 64 1016.7
20260830191503 76 316 0.0 1.7 0.00 0.00 0.00 63 1017.0
20260830190100 77 315 0.0 2.6 0.00 0.00 0.00 62 1017.1
20260830184607 78 315 0.0 2.6 0.00 0.00 0.00 61 1017.2
20260830183058 78 319 0.9 3.5 0.00 0.00 0.00 60 1017.2
20260830181559 77 310 0.9 3.5 0.00 0.00 0.00 61 1017.3
20260830180055 77 312 0.9 5.2 0.00 0.00 0.00 61 1017.5